#timestamp,LO_Frequency,Hit,StdDev 
1657767615.7,286047000.3,N
1657767635.6,286047003.7,N
1657767655.4,286047003.7,N
1657767675.2,286047005.7,N
1657767695.1,286047006.0,N
1657767696.0,286047006.0,N
1657767715.8,286047006.7,N
1657767735.7,286047005.0,N
1657767755.5,286047007.5,N
1657767775.3,286047005.8,N
1657767795.2,286046999.8,N
1657767815.9,286046999.8,N
1657767835.7,286047000.1,N
1657767855.6,286046998.8,N
1657767875.4,286046994.9,N
1657767895.2,286046997.4,N
1657767915.1,286046999.5,N
1657767916.0,286046999.5,N
1657767935.8,286046999.4,N
1657767955.7,286046995.3,N
1657767975.5,286046997.4,N
1657767995.3,286046994.9,N
1657768015.2,286046995.3,N
1657768035.0,286046993.3,N
1657768035.9,286046993.3,N
1657768055.7,286046994.4,N
1657768075.6,286046996.4,N
1657768095.4,286046997.2,N
1657768115.3,286046998.8,N
1657768135.1,286046995.7,N
1657768136.0,286046995.7,N
1657768155.8,286046992.1,N
1657768175.7,286046993.8,N
1657768195.5,286046993.9,N
1657768215.3,286046992.5,N
1657768235.2,286046990.1,N
1657768255.0,286046995.6,N
1657768255.9,286046995.6,N
1657768275.8,286046995.4,N
1657768295.6,286046993.9,N
1657768315.4,286046994.2,N
1657768335.3,286046994.2,N
1657768355.1,286046999.5,N
1657768375.8,286046996.8,N
1657768395.7,286046998.0,N
1657768415.5,286046998.6,N
1657768435.4,286047000.2,N
1657768455.2,286047003.0,N
1657768475.0,286046999.9,N
1657768475.9,286046999.9,N
1657768495.8,286047000.1,N
1657768515.6,286046999.5,N
1657768535.4,286046997.1,N
1657768555.3,286046995.8,N
1657768575.1,286046994.2,N
1657768595.9,286046992.9,N
1657768615.7,286046992.3,N
1657768635.5,286046996.7,N
1657768655.4,286046996.6,N
1657768675.2,286046996.9,N
1657768695.0,286046998.0,N
1657768695.9,286046998.0,N
1657768715.8,286046997.2,N
1657768735.6,286046996.2,N
1657768755.5,286046995.8,N
1657768775.3,286046995.5,N
1657768795.1,286046996.1,N
1657768815.9,286046997.6,N
1657768835.7,286046996.8,N
1657768855.5,286046996.9,N
1657768875.4,286046996.7,N
1657768895.2,286047002.4,N
1657768915.1,286047000.6,N
1657768916.0,286047000.6,N
1657768935.8,286047004.3,N
1657768955.6,286047002.0,N
1657768975.5,286047002.9,N
1657768995.3,286047003.0,N
1657769015.1,286047005.5,N
1657769035.9,286047005.4,N
1657769055.7,286047006.8,N
1657769075.6,286047007.7,N
1657769095.4,286047005.9,N
1657769115.3,286047000.5,N
1657769135.1,286046998.6,N
1657769155.9,286047001.0,N
1657769175.7,286047001.8,N
1657769195.5,286047001.3,N
1657769215.4,286047003.8,N
1657769235.2,286047005.4,N
1657769255.0,286047007.1,N
1657769255.9,286047007.1,N
1657769275.8,286047010.1,N
1657769295.6,286047012.5,Y
1657769315.5,286047012.3,P
1657769335.3,286047010.3,N
1657769355.1,286047008.0,N
1657769375.9,286047006.5,N
1657769395.7,286047007.5,N
1657769415.5,286047005.7,N
1657769435.4,286047008.6,N
1657769455.2,286047008.1,N
1657769475.1,286047008.4,Y
1657769476.0,286047008.4,P
1657769495.8,286046998.2,P
1657769515.6,286046998.9,N
1657769535.5,286047000.7,N
1657769555.3,286047001.0,N
1657769575.1,286047000.5,N
1657769595.9,286047002.3,N
1657769615.7,286047003.5,N
1657769635.6,286047004.1,N
1657769655.4,286047001.6,N
1657769675.2,286046999.8,N
1657769695.1,286047000.6,N
1657769696.0,286047000.6,N
1657769715.8,286046999.7,N
1657769735.6,286047001.9,N
1657769755.5,286047004.4,N
1657769775.3,286047001.7,N
1657769795.2,286047003.1,N
1657769815.9,286047005.8,N
1657769835.7,286047005.5,N
1657769855.6,286047003.0,N
1657769875.4,286047001.8,N
1657769895.2,286047004.2,N
1657769945.1,286047006.9,E
1657769955.1,286047004.4,N
1657769956.0,286047004.4,P
1657769975.8,286047000.2,P
1657769995.6,286047004.4,N
1657770015.5,286047001.9,N
1657770035.3,286047001.6,N
1657770055.2,286047004.0,N
1657770075.9,286047002.9,N
1657770095.7,286047007.2,Y
1657770115.6,286047004.8,P
1657770135.4,286047003.9,P
1657770155.2,286047002.7,P
1657770175.1,286046999.9,N
1657770176.0,286046999.9,N
1657770195.8,286047001.1,N
1657770215.7,286047001.5,N
1657770235.5,286046999.8,N
1657770255.3,286047002.8,N
1657770275.2,286047006.0,Y
1657770295.0,286047001.7,P
1657770295.9,286047001.7,P
1657770315.8,286047003.6,P
1657770335.6,286047007.4,Y
1657770355.4,286047007.9,P
1657770375.3,286047008.4,N
1657770395.1,286047004.6,N
1657770415.9,286047006.2,N
1657770435.7,286047006.4,N
1657770455.5,286047004.7,N
1657770475.4,286047006.0,Y
1657770495.2,286046995.1,P
1657770515.1,286046994.4,N
1657770516.0,286046994.4,N
1657770535.8,286046989.3,N
1657770555.6,286046982.7,Y
1657770575.5,286046979.1,P
1657770595.3,286046973.1,P
1657770615.2,286046967.8,P
1657770635.0,286046968.4,Y
1657770635.9,286046968.4,P
1657770655.8,286046993.9,N
1657770675.6,286046990.3,N
1657770695.4,286046991.3,N
1657770715.3,286046989.1,N
1657770735.1,286046990.0,N
1657770755.9,286046996.0,N
1657770775.7,286047001.6,N
1657770795.5,286047008.5,N
1657770815.4,286047011.4,N
1657770835.2,286047015.8,N
1657770855.0,286047016.7,N
1657770855.9,286047016.7,N
1657770875.8,286047016.4,N
1657770895.6,286047012.5,N
1657770915.5,286047013.3,N
1657770935.3,286047012.0,N
1657770955.1,286047009.3,N
1657770975.9,286047010.8,N
1657770995.7,286047010.0,N
1657771015.5,286047011.2,N
1657771035.4,286047011.1,N
1657771055.2,286047011.0,N
1657771075.1,286047014.0,N
1657771076.0,286047014.0,N
1657771095.8,286047013.2,N
1657771115.6,286047015.0,N
1657771135.5,286047014.3,N
1657771155.3,286047014.4,N
1657771175.1,286047015.6,N
1657771195.9,286047016.3,N
